﻿測定場所 (Monitoring sites),日付 (Measurement date),時間 (Measurement time),線量率 最大値 (max) μGy/h,線量率 最小値 (min) μGy/h,線量率 平均値 (average) μGy/h,
江戸川 (Edogawa),2017-03-05,23:01～24:00,0.0567,0.0509,0.0541,
江戸川 (Edogawa),2017-03-05,22:01～23:00,0.0573,0.0513,0.0539,
江戸川 (Edogawa),2017-03-05,21:01～22:00,0.0592,0.0509,0.0542,
江戸川 (Edogawa),2017-03-05,20:01～21:00,0.0578,0.0513,0.0541,
江戸川 (Edogawa),2017-03-05,19:01～20:00,0.0578,0.0499,0.0536,
江戸川 (Edogawa),2017-03-05,18:01～19:00,0.0577,0.0506,0.0538,
江戸川 (Edogawa),2017-03-05,17:01～18:00,0.0567,0.0504,0.0537,
江戸川 (Edogawa),2017-03-05,16:01～17:00,0.0564,0.0519,0.0541,
江戸川 (Edogawa),2017-03-05,15:01～16:00,0.0569,0.0513,0.0539,
江戸川 (Edogawa),2017-03-05,14:01～15:00,0.0544,0.0476,0.0509,
江戸川 (Edogawa),2017-03-05,13:01～14:00,0.0534,0.0468,0.0504,
江戸川 (Edogawa),2017-03-05,12:01～13:00,0.0536,0.0482,0.0506,
江戸川 (Edogawa),2017-03-05,11:01～12:00,0.0507,0.0456,0.0481,
江戸川 (Edogawa),2017-03-05,10:01～11:00,0.0546,0.0451,0.0499,
江戸川 (Edogawa),2017-03-05,09:01～10:00,0.0569,0.0506,0.0537,
江戸川 (Edogawa),2017-03-05,08:01～09:00,0.0571,0.0509,0.0540,
江戸川 (Edogawa),2017-03-05,07:01～08:00,0.0572,0.0499,0.0540,
江戸川 (Edogawa),2017-03-05,06:01～07:00,0.0571,0.0512,0.0538,
江戸川 (Edogawa),2017-03-05,05:01～06:00,0.0575,0.0508,0.0539,
江戸川 (Edogawa),2017-03-05,04:01～05:00,0.0553,0.0513,0.0535,
江戸川 (Edogawa),2017-03-05,03:01～04:00,0.0574,0.0510,0.0539,
江戸川 (Edogawa),2017-03-05,02:01～03:00,0.0573,0.0500,0.0534,
江戸川 (Edogawa),2017-03-05,01:01～02:00,0.0568,0.0504,0.0532,
江戸川 (Edogawa),2017-03-05,00:01～01:00,0.0565,0.0503,0.0535,
江戸川 (Edogawa),2017-03-04,23:01～24:00,0.0555,0.0502,0.0530,
江戸川 (Edogawa),2017-03-04,22:01～23:00,0.0564,0.0506,0.0532,
江戸川 (Edogawa),2017-03-04,21:01～22:00,0.0555,0.0503,0.0531,
江戸川 (Edogawa),2017-03-04,20:01～21:00,0.0563,0.0501,0.0533,
江戸川 (Edogawa),2017-03-04,19:01～20:00,0.0571,0.0501,0.0537,
江戸川 (Edogawa),2017-03-04,18:01～19:00,0.0567,0.0499,0.0532,
江戸川 (Edogawa),2017-03-04,17:01～18:00,0.0564,0.0495,0.0530,
江戸川 (Edogawa),2017-03-04,16:01～17:00,0.0569,0.0497,0.0537,
江戸川 (Edogawa),2017-03-04,15:01～16:00,0.0559,0.0493,0.0529,
江戸川 (Edogawa),2017-03-04,14:01～15:00,0.0575,0.0499,0.0533,
江戸川 (Edogawa),2017-03-04,13:01～14:00,0.0571,0.0499,0.0535,
江戸川 (Edogawa),2017-03-04,12:01～13:00,0.0561,0.0506,0.0533,
江戸川 (Edogawa),2017-03-04,11:01～12:00,0.0565,0.0502,0.0533,
江戸川 (Edogawa),2017-03-04,10:01～11:00,0.0564,0.0498,0.0529,
江戸川 (Edogawa),2017-03-04,09:01～10:00,0.0561,0.0505,0.0534,
江戸川 (Edogawa),2017-03-04,08:01～09:00,0.0562,0.0501,0.0527,
江戸川 (Edogawa),2017-03-04,07:01～08:00,0.0545,0.0496,0.0525,
江戸川 (Edogawa),2017-03-04,06:01～07:00,0.0554,0.0491,0.0527,
江戸川 (Edogawa),2017-03-04,05:01～06:00,0.0561,0.0492,0.0526,
江戸川 (Edogawa),2017-03-04,04:01～05:00,0.0571,0.0499,0.0528,
江戸川 (Edogawa),2017-03-04,03:01～04:00,0.0572,0.0499,0.0531,
江戸川 (Edogawa),2017-03-04,02:01～03:00,0.0560,0.0482,0.0525,
江戸川 (Edogawa),2017-03-04,01:01～02:00,0.0562,0.0489,0.0527,
江戸川 (Edogawa),2017-03-04,00:01～01:00,0.0561,0.0505,0.0524,
江戸川 (Edogawa),2017-03-03,23:01～24:00,0.0561,0.0495,0.0525,
江戸川 (Edogawa),2017-03-03,22:01～23:00,0.0558,0.0493,0.0525,
江戸川 (Edogawa),2017-03-03,21:01～22:00,0.0560,0.0491,0.0523,
江戸川 (Edogawa),2017-03-03,20:01～21:00,0.0553,0.0496,0.0527,
江戸川 (Edogawa),2017-03-03,19:01～20:00,0.0553,0.0489,0.0526,
江戸川 (Edogawa),2017-03-03,18:01～19:00,0.0562,0.0499,0.0521,
江戸川 (Edogawa),2017-03-03,17:01～18:00,0.0570,0.0500,0.0528,
江戸川 (Edogawa),2017-03-03,16:01～17:00,0.0555,0.0488,0.0521,
江戸川 (Edogawa),2017-03-03,15:01～16:00,0.0565,0.0499,0.0526,
江戸川 (Edogawa),2017-03-03,14:01～15:00,0.0559,0.0507,0.0533,
江戸川 (Edogawa),2017-03-03,13:01～14:00,0.0565,0.0504,0.0534,
江戸川 (Edogawa),2017-03-03,12:01～13:00,0.0573,0.0502,0.0534,
江戸川 (Edogawa),2017-03-03,11:01～12:00,0.0566,0.0508,0.0531,
江戸川 (Edogawa),2017-03-03,10:01～11:00,0.0572,0.0497,0.0531,
江戸川 (Edogawa),2017-03-03,09:01～10:00,0.0567,0.0496,0.0527,
江戸川 (Edogawa),2017-03-03,08:01～09:00,0.0547,0.0486,0.0521,
江戸川 (Edogawa),2017-03-03,07:01～08:00,0.0589,0.0510,0.0534,
江戸川 (Edogawa),2017-03-03,06:01～07:00,0.0568,0.0501,0.0531,
江戸川 (Edogawa),2017-03-03,05:01～06:00,0.0569,0.0500,0.0531,
江戸川 (Edogawa),2017-03-03,04:01～05:00,0.0561,0.0492,0.0528,
江戸川 (Edogawa),2017-03-03,03:01～04:00,0.0554,0.0498,0.0524,
江戸川 (Edogawa),2017-03-03,02:01～03:00,0.0561,0.0496,0.0529,
江戸川 (Edogawa),2017-03-03,01:01～02:00,0.0565,0.0501,0.0528,
江戸川 (Edogawa),2017-03-03,00:01～01:00,0.0566,0.0500,0.0529,
江戸川 (Edogawa),2017-03-02,23:01～24:00,0.0557,0.0496,0.0527,
江戸川 (Edogawa),2017-03-02,22:01～23:00,0.0557,0.0496,0.0524,
江戸川 (Edogawa),2017-03-02,21:01～22:00,0.0559,0.0496,0.0533,
江戸川 (Edogawa),2017-03-02,20:01～21:00,0.0603,0.0517,0.0546,
江戸川 (Edogawa),2017-03-02,19:01～20:00,0.0640,0.0539,0.0591,
江戸川 (Edogawa),2017-03-02,18:01～19:00,0.0642,0.0565,0.0610,
江戸川 (Edogawa),2017-03-02,17:01～18:00,0.0617,0.0525,0.0571,
江戸川 (Edogawa),2017-03-02,16:01～17:00,0.0625,0.0542,0.0577,
江戸川 (Edogawa),2017-03-02,15:01～16:00,0.0623,0.0558,0.0589,
江戸川 (Edogawa),2017-03-02,14:01～15:00,0.0636,0.0552,0.0602,
江戸川 (Edogawa),2017-03-02,13:01～14:00,0.0638,0.0506,0.0575,
江戸川 (Edogawa),2017-03-02,12:01～13:00,0.0569,0.0493,0.0528,
江戸川 (Edogawa),2017-03-02,11:01～12:00,0.0558,0.0490,0.0526,
江戸川 (Edogawa),2017-03-02,10:01～11:00,0.0558,0.0500,0.0529,
江戸川 (Edogawa),2017-03-02,09:01～10:00,0.0561,0.0491,0.0525,
江戸川 (Edogawa),2017-03-02,08:01～09:00,0.0565,0.0492,0.0523,
江戸川 (Edogawa),2017-03-02,07:01～08:00,0.0569,0.0492,0.0526,
江戸川 (Edogawa),2017-03-02,06:01～07:00,0.0574,0.0494,0.0533,
江戸川 (Edogawa),2017-03-02,05:01～06:00,0.0556,0.0486,0.0524,
江戸川 (Edogawa),2017-03-02,04:01～05:00,0.0567,0.0499,0.0531,
江戸川 (Edogawa),2017-03-02,03:01～04:00,0.0574,0.0508,0.0543,
江戸川 (Edogawa),2017-03-02,02:01～03:00,0.0629,0.0542,0.0578,
江戸川 (Edogawa),2017-03-02,01:01～02:00,0.0616,0.0550,0.0587,
江戸川 (Edogawa),2017-03-02,00:01～01:00,0.0615,0.0547,0.0581,
江戸川 (Edogawa),2017-03-01,23:01～24:00,0.0628,0.0545,0.0584,
江戸川 (Edogawa),2017-03-01,22:01～23:00,0.0609,0.0556,0.0581,
江戸川 (Edogawa),2017-03-01,21:01～22:00,0.0611,0.0539,0.0574,
江戸川 (Edogawa),2017-03-01,20:01～21:00,0.0601,0.0523,0.0564,
江戸川 (Edogawa),2017-03-01,19:01～20:00,0.0600,0.0527,0.0562,
江戸川 (Edogawa),2017-03-01,18:01～19:00,0.0589,0.0515,0.0548,
江戸川 (Edogawa),2017-03-01,17:01～18:00,0.0577,0.0514,0.0545,
江戸川 (Edogawa),2017-03-01,16:01～17:00,0.0570,0.0517,0.0545,
江戸川 (Edogawa),2017-03-01,15:01～16:00,0.0585,0.0511,0.0548,
江戸川 (Edogawa),2017-03-01,14:01～15:00,0.0589,0.0509,0.0550,
江戸川 (Edogawa),2017-03-01,13:01～14:00,0.0581,0.0520,0.0551,
江戸川 (Edogawa),2017-03-01,12:01～13:00,0.0575,0.0525,0.0550,
江戸川 (Edogawa),2017-03-01,11:01～12:00,0.0581,0.0509,0.0549,
江戸川 (Edogawa),2017-03-01,10:01～11:00,0.0575,0.0522,0.0549,
江戸川 (Edogawa),2017-03-01,09:01～10:00,0.0578,0.0513,0.0543,
江戸川 (Edogawa),2017-03-01,08:01～09:00,0.0580,0.0514,0.0542,
江戸川 (Edogawa),2017-03-01,07:01～08:00,0.0568,0.0503,0.0538,
江戸川 (Edogawa),2017-03-01,06:01～07:00,0.0565,0.0504,0.0537,
江戸川 (Edogawa),2017-03-01,05:01～06:00,0.0572,0.0504,0.0536,
江戸川 (Edogawa),2017-03-01,04:01～05:00,0.0571,0.0505,0.0535,
江戸川 (Edogawa),2017-03-01,03:01～04:00,0.0568,0.0506,0.0539,
江戸川 (Edogawa),2017-03-01,02:01～03:00,0.0572,0.0494,0.0540,
江戸川 (Edogawa),2017-03-01,01:01～02:00,0.0566,0.0509,0.0537,
江戸川 (Edogawa),2017-03-01,00:01～01:00,0.0569,0.0509,0.0538,
江戸川 (Edogawa),2017-02-28,23:01～24:00,0.0575,0.0505,0.0535,
江戸川 (Edogawa),2017-02-28,22:01～23:00,0.0565,0.0516,0.0541,
江戸川 (Edogawa),2017-02-28,21:01～22:00,0.0573,0.0501,0.0538,
江戸川 (Edogawa),2017-02-28,20:01～21:00,0.0575,0.0498,0.0536,
江戸川 (Edogawa),2017-02-28,19:01～20:00,0.0574,0.0504,0.0541,
江戸川 (Edogawa),2017-02-28,18:01～19:00,0.0575,0.0512,0.0542,
江戸川 (Edogawa),2017-02-28,17:01～18:00,0.0573,0.0509,0.0540,
江戸川 (Edogawa),2017-02-28,16:01～17:00,0.0573,0.0513,0.0541,
江戸川 (Edogawa),2017-02-28,15:01～16:00,0.0578,0.0519,0.0549,
江戸川 (Edogawa),2017-02-28,14:01～15:00,0.0572,0.0516,0.0545,
江戸川 (Edogawa),2017-02-28,13:01～14:00,0.0595,0.0509,0.0546,
江戸川 (Edogawa),2017-02-28,12:01～13:00,0.0588,0.0520,0.0551,
江戸川 (Edogawa),2017-02-28,11:01～12:00,0.0586,0.0512,0.0548,
江戸川 (Edogawa),2017-02-28,10:01～11:00,0.0574,0.0514,0.0544,
江戸川 (Edogawa),2017-02-28,09:01～10:00,0.0585,0.0517,0.0544,
江戸川 (Edogawa),2017-02-28,08:01～09:00,0.0574,0.0505,0.0543,
江戸川 (Edogawa),2017-02-28,07:01～08:00,0.0576,0.0497,0.0536,
江戸川 (Edogawa),2017-02-28,06:01～07:00,0.0576,0.0513,0.0539,
江戸川 (Edogawa),2017-02-28,05:01～06:00,0.0564,0.0511,0.0539,
江戸川 (Edogawa),2017-02-28,04:01～05:00,0.0578,0.0502,0.0538,
江戸川 (Edogawa),2017-02-28,03:01～04:00,0.0594,0.0506,0.0541,
江戸川 (Edogawa),2017-02-28,02:01～03:00,0.0573,0.0509,0.0538,
江戸川 (Edogawa),2017-02-28,01:01～02:00,0.0563,0.0515,0.0535,
江戸川 (Edogawa),2017-02-28,00:01～01:00,0.0566,0.0499,0.0537,
江戸川 (Edogawa),2017-02-27,23:01～24:00,0.0566,0.0510,0.0538,
江戸川 (Edogawa),2017-02-27,22:01～23:00,0.0578,0.0506,0.0537,
江戸川 (Edogawa),2017-02-27,21:01～22:00,0.0580,0.0489,0.0539,
江戸川 (Edogawa),2017-02-27,20:01～21:00,0.0574,0.0508,0.0537,
江戸川 (Edogawa),2017-02-27,19:01～20:00,0.0568,0.0509,0.0539,
江戸川 (Edogawa),2017-02-27,18:01～19:00,0.0577,0.0504,0.0542,
江戸川 (Edogawa),2017-02-27,17:01～18:00,0.0580,0.0516,0.0540,
江戸川 (Edogawa),2017-02-27,16:01～17:00,0.0589,0.0506,0.0545,
江戸川 (Edogawa),2017-02-27,15:01～16:00,0.0573,0.0520,0.0547,
江戸川 (Edogawa),2017-02-27,14:01～15:00,0.0565,0.0517,0.0545,
江戸川 (Edogawa),2017-02-27,13:01～14:00,0.0585,0.0512,0.0545,
江戸川 (Edogawa),2017-02-27,12:01～13:00,0.0565,0.0515,0.0541,
江戸川 (Edogawa),2017-02-27,11:01～12:00,0.0581,0.0506,0.0546,
江戸川 (Edogawa),2017-02-27,10:01～11:00,0.0577,0.0514,0.0544,
江戸川 (Edogawa),2017-02-27,09:01～10:00,0.0583,0.0518,0.0548,
江戸川 (Edogawa),2017-02-27,08:01～09:00,0.0582,0.0515,0.0545,
江戸川 (Edogawa),2017-02-27,07:01～08:00,0.0578,0.0512,0.0549,
江戸川 (Edogawa),2017-02-27,06:01～07:00,0.0576,0.0517,0.0545,
江戸川 (Edogawa),2017-02-27,05:01～06:00,0.0587,0.0512,0.0544,
江戸川 (Edogawa),2017-02-27,04:01～05:00,0.0572,0.0510,0.0544,
江戸川 (Edogawa),2017-02-27,03:01～04:00,0.0579,0.0521,0.0542,
江戸川 (Edogawa),2017-02-27,02:01～03:00,0.0573,0.0511,0.0542,
江戸川 (Edogawa),2017-02-27,01:01～02:00,0.0587,0.0511,0.0547,
江戸川 (Edogawa),2017-02-27,00:01～01:00,0.0569,0.0510,0.0543,
